Printer-friendly version

IAU Minor Planet Center

Minor Planet Center

MPEC 2006-D62 : 2006 DO63

The following Minor Planet Electronic Circular may be linked-to from your own Web pages, but must not otherwise be redistributed electronically.


Read MPEC 2006-D61 Read MPEC 2006-D63


M.P.E.C. 2006-D62                                Issued 2006 Feb. 28, 13:16 UT

     The Minor Planet Electronic Circulars contain information on unusual
         minor planets and routine data on comets.  They are published
   on behalf of Commission 20 of the International Astronomical Union by the
          Minor Planet Center, Smithsonian Astrophysical Observatory,
                          Cambridge, MA 02138, U.S.A.

                  Supported in part by the Brinson Foundation
                  Supported in part by the TABASGO Foundation
             Prepared using the Tamkin Foundation Computer Network

                              MPC@CFA.HARVARD.EDU
          URL http://cfa-www.harvard.edu/iau/mpc.html  ISSN 1523-6714

                                   2006 DO63

Observations:
     K06D63O* C2006 02 27.38222 12 00 25.48 -02 29 37.5          21.3 V ED062G96
     K06D63O  C2006 02 27.38806 12 00 29.12 -02 29 29.0          20.7 V ED062G96
     K06D63O  C2006 02 27.39378 12 00 32.72 -02 29 21.3          21.1 V ED062G96
     K06D63O  C2006 02 27.39959 12 00 36.39 -02 29 12.9          21.2 V ED062G96
     K06D63O  C2006 02 27.41669 12 00 47.11 -02 28 48.9          21.0 V ED062G96
     K06D63O  C2006 02 27.41849 12 00 48.27 -02 28 46.2          21.1 V ED062G96
     K06D63O  C2006 02 27.42028 12 00 49.43 -02 28 43.8          21.0 V ED062G96
     K06D63O  C2006 02 27.42208 12 00 50.43 -02 28 41.1          20.9 V ED062G96
     K06D63O  C2006 02 27.46650 12 01 18.88 -02 27 37.4          21.3 V ED062G96
     K06D63O  C2006 02 27.47009 12 01 21.06 -02 27 33.3          21.0 V ED062G96
     K06D63O  C2006 02 27.47186 12 01 22.35 -02 27 29.7          21.4 V ED062G96
     K06D63O  C2006 02 28.28553 12 11 26.59 -02 06 25.3          20.8 V ED062G96
     K06D63O  C2006 02 28.28607 12 11 26.98 -02 06 24.6          21.1 V ED062G96
     K06D63O  C2006 02 28.28660 12 11 27.38 -02 06 23.6          21.1 V ED062G96
     K06D63O  C2006 02 28.28713 12 11 27.85 -02 06 22.7          20.7 V ED062G96

Observer details:
G96 Mt. Lemmon Survey.  Observer R. Hill.  Measurers E. C. Beshore,
    E. J. Christensen, G. J. Garradd, A. R. Gibbs, A. D. Grauer, R. E. Hill,
    R. A. Kowalski, S. M. Larson, R. H. McNaught.  1.5-m reflector + CCD.

Orbital elements:
2006 DO63                                                Earth MOID = 0.0174 AU
Epoch 2006 Mar. 6.0 TT = JDT 2453800.5                  MPC
M 333.78634              (2000.0)            P               Q
n   0.55927446     Peri.   66.28616     -0.67296968     +0.73884413
a   1.4589914      Node   161.28168     -0.71209866     -0.63438235
e   0.4072528      Incl.    6.25143     -0.20006827     -0.22730681
P   1.76           H   25.8           G   0.15           U   8
Residuals in seconds of arc
060227 G96  0.4-  0.0     060227 G96  0.5-  0.3+    060227 G96  0.4+  0.5+
060227 G96  0.7-  0.4+    060227 G96  0.1-  0.2+    060228 G96  0.0   0.0
060227 G96  0.5-  0.0     060227 G96  2.2-  0.3+    060228 G96  0.2-  0.2-
060227 G96  0.2-  0.3+    060227 G96  0.0   0.6+    060228 G96  0.1-  0.1-
060227 G96  0.9-  0.1+    060227 G96  1.9-  0.5-    060228 G96  1.0+  0.0

Ephemeris:
2006 DO63                a,e,i = 1.46, 0.41, 6                   q = 0.8648
Date    TT    R. A. (2000) Decl.     Delta      r     Elong.  Phase     V
2006 02 24    11 31.14   -03 25.0    0.0892   1.074   159.6    18.8    21.7
2006 02 25    11 38.30   -03 12.2    0.0828   1.068   159.3    19.2    21.5
2006 02 26    11 46.59   -02 56.4    0.0765   1.062   158.7    19.8    21.3
2006 02 27    11 56.28   -02 37.0    0.0703   1.056   157.8    20.7    21.2
2006 02 28    12 07.72   -02 13.0    0.0644   1.050   156.5    22.1    21.0
2006 03 01    12 21.35   -01 43.2    0.0587   1.044   154.6    24.0    20.9
2006 03 02    12 37.75   -01 06.3    0.0532   1.038   152.0    26.7    20.7
2006 03 03    12 57.66   -00 20.5    0.0482   1.033   148.4    30.2    20.6
2006 03 04    13 21.91   +00 36.1    0.0436   1.027   143.6    34.9    20.5
2006 03 05    13 51.35   +01 44.7    0.0396   1.021   137.5    41.0    20.4
2006 03 06    14 26.57   +03 04.6    0.0364   1.016   129.8    48.6    20.5
2006 03 07    15 07.30   +04 31.5    0.0343   1.010   120.7    57.6    20.6
2006 03 08    15 51.91   +05 56.6    0.0333   1.005   110.6    67.6    20.8
2006 03 09    16 37.39   +07 09.4    0.0337   0.999   100.3    77.8    21.2
2006 03 10    17 20.40   +08 02.6    0.0354   0.994    90.6    87.4    21.6
2006 03 11    17 58.55   +08 35.7    0.0381   0.989    82.1    95.8    22.1
2006 03 12    18 30.96   +08 52.6    0.0417   0.984    74.9   102.7    22.6
2006 03 13    18 57.85   +08 58.6    0.0460   0.978    69.2   108.3    23.1
2006 03 14    19 20.00   +08 57.8    0.0508   0.973    64.6   112.7    23.6
2006 03 15    19 38.28   +08 53.4    0.0559   0.968    60.9   116.2    24.0
2006 03 16    19 53.47   +08 47.0    0.0614   0.964    58.0   118.9    24.4

Timothy B. Spahr             (C) Copyright 2006 MPC           M.P.E.C. 2006-D62

Read MPEC 2006-D61 Read MPEC 2006-D63


Our Web policy. Index to the CBAT/MPC/ICQ pages.


Valid HTML 4.01!